Location: Neuvy Saint Sepulchre
(46.5953°N, 1.8122°E)
Time: 19:54:24
(UTC+01:00)

ISS - Pass Details

Date: 02 December 2021
Orbit: 417 x 422 km, 51.6° (Epoch: 06 December)

Event Time Altitude Azimuth Distance (km) Brightness Sun altitude
Rises 17:54:19 0° 289° (WNW) 2,378 0.9 -8.1°
Reaches altitude 10° 17:56:33 10° 299° (WNW) 1,512 -0.4 -8.4°
Maximum altitude 17:59:42 35° 7° (N) 700 -2.9 -8.9°
Enters shadow 18:02:21 13° 72° (ENE) 1,322 -1.9 -9.3°
